FW5305 Weather Reports


Display with metric or nautical units.
time (UTC)temp
F
wind
direction
speed
MPH
gust
MPH
rain 1hr
in
rain 24hr
in
rain mn
in
humidity
%
barometer
mb
20220818131554 68 198 7.0 13.0 0.00 0.00 0.00 57 1022.0
20220818130108 67 198 6.0 14.0 0.00 0.00 0.00 58 1022.1
20220818124621 66 217 5.0 11.0 0.00 0.00 0.00 59 1022.4
20220818123054 66 193 6.0 11.0 0.00 0.00 0.00 59 1022.4
20220818121645 65 240 6.0 10.0 0.00 0.00 0.00 60 1022.6
20220818120057 65 228 6.0 10.0 0.00 0.00 0.00 60 1022.5
20220818114547 65 207 5.0 9.0 0.00 0.00 0.00 60 1022.4
20220818113127 65 218 5.0 10.0 0.00 0.00 0.00 60 1022.3
20220818111605 65 188 6.0 10.0 0.00 0.00 0.00 60 1022.3
20220818110116 65 194 4.0 9.0 0.00 0.00 0.00 61 1022.1
20220818104614 65 204 5.0 10.0 0.00 0.00 0.00 61 1022.0
20220818103057 65 202 4.0 7.0 0.00 0.00 0.00 62 1022.2
20220818101630 65 193 3.0 5.0 0.00 0.00 0.00 61 1022.4
20220818100111 65 204 2.0 6.0 0.00 0.00 0.00 60 1022.4
20220818094555 65 214 3.0 7.0 0.00 0.00 0.00 61 1022.4
20220818093059 65 225 5.0 7.0 0.00 0.00 0.00 61 1022.5
20220818091635 65 232 3.0 6.0 0.00 0.00 0.00 61 1022.5
20220818090114 65 218 0.0 4.0 0.00 0.00 0.00 61 1022.6
20220818084608 66 217 2.0 5.0 0.00 0.00 0.00 61 1022.6
20220818083103 66 213 2.0 5.0 0.00 0.00 0.00 61 1022.9
20220818081609 67 207 2.0 6.0 0.00 0.00 0.00 60 1023.0
20220818080123 67 214 4.0 7.0 0.00 0.00 0.00 60 1023.0
20220818074622 67 203 4.0 6.0 0.00 0.00 0.00 59 1023.2
20220818073135 67 207 4.0 8.0 0.00 0.00 0.00 59 1023.4
20220818071622 67 211 3.0 7.0 0.00 0.00 0.00 59 1023.8
20220818070101 67 196 4.0 8.0 0.00 0.00 0.00 59 1023.8
20220818064549 68 212 4.0 7.0 0.00 0.00 0.00 59 1023.9
20220818063058 68 205 4.0 7.0 0.00 0.00 0.00 59 1024.1
20220818061606 68 215 4.0 7.0 0.00 0.00 0.00 60 1024.0
20220818060105 67 208 3.0 5.0 0.00 0.00 0.00 61 1024.1
20220818054602 68 212 2.0 4.0 0.00 0.00 0.00 61 1024.2
20220818053050 68 201 1.0 7.0 0.00 0.00 0.00 60 1024.2
20220818051604 68 198 4.0 6.0 0.00 0.00 0.00 60 1024.2
20220818050110 68 213 4.0 8.0 0.00 0.00 0.00 61 1024.3
20220818044606 69 200 3.0 5.0 0.00 0.00 0.00 61 1024.5
20220818043116 69 208 1.0 4.0 0.00 0.00 0.00 61 1024.5
20220818041637 69 206 2.0 5.0 0.00 0.00 0.00 60 1024.6
20220818040103 69 217 3.0 6.0 0.00 0.00 0.00 60 1024.5
20220818034659 69 205 3.0 5.0 0.00 0.00 0.00 60 1024.5
20220818033109 70 194 2.0 5.0 0.00 0.00 0.00 59 1024.6
20220818031555 70 0 2.0 6.0 0.00 0.00 0.00 59 1024.9
20220818030108 70 214 2.0 4.0 0.00 0.00 0.00 60 1025.0
20220818024643 70 215 2.0 4.0 0.00 0.00 0.00 60 1024.9
20220818023113 70 209 2.0 4.0 0.00 0.00 0.00 59 1024.8
20220818021610 70 213 2.0 4.0 0.00 0.00 0.00 59 1024.7
20220818020126 71 213 3.0 5.0 0.00 0.00 0.00 58 1024.6
20220818014604 71 207 2.0 5.0 0.00 0.00 0.00 58 1024.5
20220818013141 72 209 3.0 6.0 0.00 0.00 0.00 56 1024.6
20220818011601 73 205 3.0 5.0 0.00 0.00 0.00 54 1024.9
20220818010133 74 186 1.0 4.0 0.00 0.00 0.00 52 1024.9
20220818004612 75 191 0.0 6.0 0.00 0.00 0.00 51 1025.1
20220818003100 76 200 2.0 8.0 0.00 0.00 0.00 49 1025.1
20220818001607 77 192 2.0 6.0 0.00 0.00 0.00 48 1025.2
20220818000100 77 199 3.0 7.0 0.00 0.00 0.00 48 1025.2
20220817234601 78 215 5.0 8.0 0.00 0.00 0.00 47 1025.2
20220817233119 79 184 4.0 9.0 0.00 0.00 0.00 46 1025.2
20220817231603 78 172 4.0 8.0 0.00 0.00 0.00 47 1025.4
20220817230111 77 219 4.0 11.0 0.00 0.00 0.00 49 1025.6
20220817224555 78 213 4.0 8.0 0.00 0.00 0.00 46 1026.0
20220817223121 78 205 4.0 8.0 0.00 0.00 0.00 46 1025.7
20220817221606 79 185 7.0 12.0 0.00 0.00 0.00 46 1025.8
20220817220103 78 195 3.0 9.0 0.00 0.00 0.00 47 1026.0
20220817214552 79 215 2.0 10.0 0.00 0.00 0.00 45 1026.1
20220817213059 79 202 4.0 8.0 0.00 0.00 0.00 46 1026.3
20220817211610 79 220 2.0 7.0 0.00 0.00 0.00 47 1026.5
20220817210105 77 171 3.0 7.0 0.00 0.00 0.00 50 1026.5
20220817204559 78 194 5.0 8.0 0.00 0.00 0.00 47 1026.7
20220817203059 79 213 5.0 11.0 0.00 0.00 0.00 43 1026.7
20220817201604 78 205 2.0 7.0 0.00 0.00 0.00 48 1026.9
20220817200105 79 203 4.0 7.0 0.00 0.00 0.00 45 1026.9
20220817194600 78 167 3.0 7.0 0.00 0.00 0.00 47 1027.2
20220817193212 78 188 1.0 7.0 0.00 0.00 0.00 47 1027.4
20220817191621 78 206 3.0 8.0 0.00 0.00 0.00 46 1027.5
20220817190117 78 206 0.0 7.0 0.00 0.00 0.00 45 1027.6
20220817184618 79 265 3.0 6.0 0.00 0.00 0.00 43 1027.6
20220817183106 79 181 1.0 7.0 0.00 0.00 0.00 43 1027.8
20220817181628 77 206 0.0 7.0 0.00 0.00 0.00 43 1027.7
20220817180121 77 296 2.0 6.0 0.00 0.00 0.00 45 1027.9
20220817174614 76 302 1.0 6.0 0.00 0.00 0.00 45 1028.1
20220817173100 77 243 2.0 7.0 0.00 0.00 0.00 45 1028.4
20220817171627 76 303 4.0 7.0 0.00 0.00 0.00 46 1028.5
20220817170101 76 295 2.0 7.0 0.00 0.00 0.00 46 1028.6
20220817164611 76 275 2.0 6.0 0.00 0.00 0.00 48 1028.5
20220817163058 75 262 1.0 4.0 0.00 0.00 0.00 47 1028.7
20220817161554 75 286 3.0 8.0 0.00 0.00 0.00 48 1028.7
20220817160143 75 196 3.0 6.0 0.00 0.00 0.00 45 1028.7
20220817154623 74 211 2.0 5.0 0.00 0.00 0.00 47 1028.6
20220817153101 74 204 2.0 7.0 0.00 0.00 0.00 49 1028.6
20220817151607 73 252 1.0 6.0 0.00 0.00 0.00 50 1028.8
20220817150100 71 200 2.0 8.0 0.00 0.00 0.00 52 1028.7
20220817144710 70 213 2.0 4.0 0.00 0.00 0.00 53 1028.7
20220817143101 69 204 1.0 7.0 0.00 0.00 0.00 54 1028.7
20220817141608 67 235 3.0 7.0 0.00 0.00 0.00 55 1028.8
20220817140109 66 217 3.0 6.0 0.00 0.00 0.00 56 1028.9
20220817134606 65 198 2.0 6.0 0.00 0.00 0.00 56 1028.8
20220817133056 63 194 1.0 5.0 0.00 0.00 0.00 56 1028.8